{"data":{"norad_id":56542,"epoch":"2026-09-20T13:00:13.894272Z","epoch_age_seconds":111204,"freshness":"FRESH","line1":"1 56542U 23065AR  26263.54182748  .00000055  00000+0  11516-4 0  9993","line2":"2 56542  43.0002 206.4508 0000731 259.3951 100.6819 15.27574319186232","mean_motion":15.27574319,"eccentricity":7.31e-5,"inclination_deg":43.0002,"raan_deg":206.4508,"arg_perigee_deg":259.3951,"mean_anomaly_deg":100.6819,"bstar":1.1516e-5,"rev_number":18623,"period_min":94.267099288673,"perigee_km":482.56455310298,"apogee_km":483.56766099723,"semimajor_km":6861.2031070501,"source":"CELESTRAK","updated_at":"2026-09-21T09:00:33.477121Z"}}